SV2BZQ-1 Makrigialos GR current weather conditions

sailwx.info

Wind from 167 at 2 knots gusting 6

Air temperature 29.4° C
Dewpoint 22.2° C

Last reported at 2020-Aug-14 15:03 UTC.
Time now 2020-Aug-14 16:12 UTC

Location: N 40°25' E 022°37'.
View on Google Maps.

See reports from other nearby stations

  
Tides and Currents Weather Stations Pressure Air Temp Water Temp Dewpoint Dewpoint Depression Visibility Wind Speed Wind Dir Waves Ship Positions
date/time (UTC)wind fromknots sea level pressurealtimeterstation pressurevisibilityair tempwater tempwave heightnotes
2020-Aug-14 15:03 167 2 gusting 6 29.4
2020-Aug-14 14:59 148 1 gusting 6 29.4
2020-Aug-14 14:55 154 1 gusting 6 29.4
2020-Aug-14 14:49 160 1 gusting 6 29.4
2020-Aug-14 14:44 130 1 gusting 6 29.4
2020-Aug-14 14:38 147 1 gusting 9 29.4
2020-Aug-14 14:34 167 3 gusting 9 29.4
2020-Aug-14 14:28 193 4 gusting 9 29.4
2020-Aug-14 14:24 157 4 gusting 9 30.0
2020-Aug-14 14:20 169 3 gusting 9 30.0
2020-Aug-14 14:13 160 2 gusting 8 30.0
2020-Aug-14 14:09 130 2 gusting 8 30.0
2020-Aug-14 14:03 157 2 gusting 6 30.0
2020-Aug-14 13:59 167 3 gusting 11 29.4
2020-Aug-14 13:53 175 4 gusting 11 29.4
2020-Aug-14 13:49 154 3 gusting 8 29.4
2020-Aug-14 13:44 161 3 gusting 6 29.4
2020-Aug-14 13:36 151 5 gusting 11 29.4
2020-Aug-14 13:34 127 5 gusting 11 29.4
2020-Aug-14 13:26 179 5 gusting 11 29.4
2020-Aug-14 13:24 167 5 gusting 11 29.4
2020-Aug-14 13:19 158 5 gusting 10 29.4
2020-Aug-14 13:13 123 5 gusting 12 29.4
2020-Aug-14 13:08 155 5 gusting 12 29.4
2020-Aug-14 13:03 137 4 gusting 11 29.4
2020-Aug-14 12:59 155 4 gusting 11 29.4
2020-Aug-14 12:53 165 5 gusting 11 29.4
2020-Aug-14 12:49 154 5 gusting 11 28.9
2020-Aug-14 12:42 198 5 gusting 11 28.9
2020-Aug-14 12:38 171 5 gusting 10 28.9
2020-Aug-14 12:33 140 6 gusting 12 28.9
2020-Aug-14 12:29 148 6 gusting 12 28.9
2020-Aug-14 12:23 169 6 gusting 12 28.9
2020-Aug-14 12:19 155 5 gusting 10 29.4
2020-Aug-14 12:15 164 6 gusting 10 28.9
2020-Aug-14 12:09 164 5 gusting 9 29.4
2020-Aug-14 12:04 155 4 gusting 9 29.4
2020-Aug-14 11:58 144 3 gusting 8 29.4
2020-Aug-14 11:54 158 3 gusting 10 29.4
2020-Aug-14 11:48 161 4 gusting 10 29.4
2020-Aug-14 11:43 160 4 gusting 9 28.9
2020-Aug-14 11:39 162 4 gusting 9 28.9
2020-Aug-14 11:34 141 5 gusting 9 28.3
2020-Aug-14 11:30 143 6 gusting 9 28.3
2020-Aug-14 11:23 154 6 gusting 9 28.3
2020-Aug-14 11:19 160 6 gusting 9 28.3
2020-Aug-14 11:15 162 4 gusting 9 28.3
2020-Aug-14 11:08 158 3 gusting 8 28.9
2020-Aug-14 11:04 162 3 gusting 8 28.9
2020-Aug-14 10:59 134 3 gusting 7 28.9
2020-Aug-14 10:51 155 3 gusting 6 28.9
2020-Aug-14 10:49 165 4 gusting 6 28.9
2020-Aug-14 10:42 151 4 gusting 6 28.9
2020-Aug-14 10:38 158 3 gusting 6 28.9
2020-Aug-14 10:33 158 3 gusting 6 28.9
2020-Aug-14 10:29 140 3 gusting 6 28.9
2020-Aug-14 10:24 155 1 gusting 6 28.9
2020-Aug-14 10:18 157 0 gusting 6 28.3
2020-Aug-14 10:14 158 1 gusting 5 28.3
2020-Aug-14 10:09 089 1 gusting 6 27.8
2020-Aug-14 10:02 104 2 gusting 5 27.8
2020-Aug-14 09:58 102 2 gusting 5 27.2
2020-Aug-14 09:54 117 2 gusting 5 27.2
2020-Aug-14 09:49 114 2 gusting 5 27.2
2020-Aug-14 09:43 126 1 gusting 6 28.3
2020-Aug-14 09:38 100 0 gusting 5 28.3
2020-Aug-14 09:32 097 0 gusting 2 27.8
2020-Aug-14 09:29 097 0 gusting 4 27.8
2020-Aug-14 09:25 092 1 gusting 5 27.2
2020-Aug-14 09:18 089 0 gusting 5 27.2
2020-Aug-14 09:14 086 0 gusting 5 27.2
2020-Aug-14 09:08 093 0 gusting 4 27.2
2020-Aug-14 09:04 075 0 gusting 4 27.2
2020-Aug-14 08:58 117 1 gusting 5 27.2
2020-Aug-14 08:52 092 1 gusting 5 27.2
2020-Aug-14 08:48 064 0 gusting 5 27.2
2020-Aug-14 08:44 017 1 gusting 5 27.2
2020-Aug-14 08:38 031 1 gusting 5 26.7
2020-Aug-14 08:31 034 1 gusting 5 26.7
2020-Aug-14 08:29 032 1 gusting 5 26.7
2020-Aug-14 08:21 014 1 gusting 6 26.7
2020-Aug-14 08:19 014 1 gusting 6 27.2
2020-Aug-14 08:15 26.7
2020-Aug-14 08:08 357 2 gusting 6 26.7
2020-Aug-14 08:04 044 2 gusting 6 26.7
2020-Aug-14 08:00 014 2 gusting 6 26.7
2020-Aug-14 07:54 357 2 gusting 6 26.7
2020-Aug-14 07:49 26.7
2020-Aug-14 07:43 011 3 gusting 6 26.1
2020-Aug-14 07:39 017 3 gusting 6 26.1
2020-Aug-14 07:33 357 3 gusting 6 26.1
2020-Aug-14 07:28 027 4 gusting 6 25.6
2020-Aug-14 07:24 021 3 gusting 6 25.6
2020-Aug-14 07:20 25.6
2020-Aug-14 07:13 017 5 gusting 6 25.6
2020-Aug-14 07:09 003 4 gusting 9 25.6
2020-Aug-14 07:03 011 4 gusting 9 25.6
2020-Aug-14 06:59 031 4 gusting 8 25.6
2020-Aug-14 06:52 034 3 gusting 6 25.6
2020-Aug-14 06:47 018 3 gusting 6 25.0
2020-Aug-14 06:43 25.0
2020-Aug-14 06:39 010 3 gusting 8 25.0
2020-Aug-14 06:34 25.0
2020-Aug-14 06:28 034 3 gusting 8 24.4
2020-Aug-14 06:21 021 3 gusting 8 24.4
2020-Aug-14 06:19 042 4 gusting 6 24.4
2020-Aug-14 06:13 021 3 gusting 6 24.4
2020-Aug-14 06:09 018 3 gusting 6 24.4
2020-Aug-14 06:03 021 2 gusting 6 24.4
2020-Aug-14 05:57 24.4
2020-Aug-14 05:53 020 2 gusting 5 24.4
2020-Aug-14 05:47 013 2 gusting 5 24.4
2020-Aug-14 05:45 24.4
2020-Aug-14 05:35 24.4
2020-Aug-14 05:33 350 0 gusting 2 24.4
2020-Aug-14 05:29 024 0 gusting 4 24.4
2020-Aug-14 05:24 024 1 gusting 4 24.4
2020-Aug-14 05:19 24.4
2020-Aug-14 05:13 020 23.9
2020-Aug-14 05:08 298 23.9
2020-Aug-14 05:03 298 23.9
2020-Aug-14 04:59 298 23.9
2020-Aug-14 04:54 298 23.3
2020-Aug-14 04:50 298 23.3
2020-Aug-14 04:43 298 22.8
2020-Aug-14 04:38 298 22.8
2020-Aug-14 04:34 298 22.2
2020-Aug-14 04:29 298 22.2
2020-Aug-14 04:24 298 22.2
2020-Aug-14 04:18 298 21.7
2020-Aug-14 04:13 298 21.7
2020-Aug-14 04:08 298 21.7
2020-Aug-14 04:03 298 21.7
2020-Aug-14 03:58 298 21.7
2020-Aug-14 03:53 298 21.7
2020-Aug-14 03:49 298 21.7
2020-Aug-14 03:42 298 21.7
2020-Aug-14 03:38 298 21.7
2020-Aug-14 03:33 298 21.7
2020-Aug-14 03:28 298 21.7
2020-Aug-14 03:23 298 22.2
2020-Aug-14 03:17 298 22.2
2020-Aug-14 03:15 298 22.2
2020-Aug-14 03:08 298 22.2
2020-Aug-14 03:01 298 22.2
2020-Aug-14 02:55 298 22.2
2020-Aug-14 02:50 298 22.2
2020-Aug-14 02:45 298 22.2
2020-Aug-14 02:43 298 22.2
2020-Aug-14 02:38 298 22.8
2020-Aug-14 02:34 298 22.8
2020-Aug-14 02:29 298 22.8
2020-Aug-14 02:24 298 22.8
2020-Aug-14 02:18 298 22.8
2020-Aug-14 02:14 298 22.8
2020-Aug-14 02:07 298 22.2
2020-Aug-14 02:04 298 22.2
2020-Aug-14 01:58 298 0 gusting 4 22.2
2020-Aug-14 01:52 298 0 gusting 4 22.2
2020-Aug-14 01:48 298 0 gusting 4 21.7
2020-Aug-14 01:41 295 21.7
2020-Aug-14 01:39 295 21.7
2020-Aug-14 01:33 294 21.7
2020-Aug-14 01:28 289 22.2
2020-Aug-14 01:24 281 22.2
2020-Aug-14 01:19 280 22.2
2020-Aug-14 01:12 257 22.8
2020-Aug-14 01:07 257 22.8
2020-Aug-14 01:03 257 22.8
2020-Aug-14 00:59 223 22.8
2020-Aug-14 00:54 220 22.8
2020-Aug-14 00:49 220 22.8
2020-Aug-14 00:43 222 22.8
2020-Aug-14 00:39 222 22.8
2020-Aug-14 00:34 222 22.8
2020-Aug-14 00:29 222 23.3
2020-Aug-14 00:24 222 22.8
2020-Aug-14 00:18 222 22.8
2020-Aug-14 00:14 222 22.8
2020-Aug-14 00:09 222 23.3
2020-Aug-13 23:58 219 23.3
2020-Aug-13 23:08 217 23.9
2020-Aug-13 23:02 217 23.9
2020-Aug-13 22:57 217 24.4
2020-Aug-13 22:52 217 24.4
2020-Aug-13 22:49 217 24.4
2020-Aug-13 22:45 217 24.4
2020-Aug-13 22:39 217 24.4
2020-Aug-13 22:34 217 23.9
2020-Aug-13 22:29 217 23.9
2020-Aug-13 22:24 217 23.9
2020-Aug-13 22:18 217 23.9
2020-Aug-13 22:14 217 23.9
2020-Aug-13 22:08 217 23.9
2020-Aug-13 22:04 217 23.9
2020-Aug-13 22:00 217 23.9
2020-Aug-13 21:52 217 23.9
2020-Aug-13 21:48 217 23.9
2020-Aug-13 21:43 217 23.9
2020-Aug-13 21:38 217 23.9
2020-Aug-13 21:31 217 23.9
2020-Aug-13 21:29 217 23.9
2020-Aug-13 21:20 217 24.4
2020-Aug-13 21:15 217 24.4
2020-Aug-13 21:10 217 24.4
2020-Aug-13 21:03 217 24.4
2020-Aug-13 20:58 217 24.4
2020-Aug-13 20:54 217 24.4
2020-Aug-13 20:48 217 24.4
2020-Aug-13 20:43 217 24.4
2020-Aug-13 20:39 217 0 gusting 4 24.4
2020-Aug-13 20:32 217 24.4
2020-Aug-13 20:29 210 24.4
2020-Aug-13 20:23 203 24.4
2020-Aug-13 20:19 202 25.0
2020-Aug-13 20:14 200 25.0
2020-Aug-13 20:09 200 25.0
2020-Aug-13 20:04 200 25.0
2020-Aug-13 19:57 200 25.0
2020-Aug-13 19:53 200 25.6
2020-Aug-13 19:48 200 25.6
2020-Aug-13 19:44 200 25.0
2020-Aug-13 19:39 200 25.0
2020-Aug-13 19:32 200 25.0
2020-Aug-13 19:27 200 25.0
2020-Aug-13 19:21 200 25.0
2020-Aug-13 19:15 200 25.0
2020-Aug-13 19:13 200 25.0
2020-Aug-13 19:05 200 25.0
2020-Aug-13 19:03 200 25.0
2020-Aug-13 18:55 200 25.0
2020-Aug-13 18:53 200 25.0
2020-Aug-13 18:49 200 25.6
2020-Aug-13 18:44 200 25.6
2020-Aug-13 18:37 195 25.6
2020-Aug-13 18:33 195 25.6
2020-Aug-13 18:28 193 25.6
2020-Aug-13 18:23 193 25.6
2020-Aug-13 18:17 193 26.1
2020-Aug-13 18:13 193 26.1
2020-Aug-13 18:09 193 26.1
2020-Aug-13 18:03 193 26.1
2020-Aug-13 17:58 193 26.1
2020-Aug-13 17:53 193 26.7
2020-Aug-13 17:47 193 26.7
2020-Aug-13 17:40 193 26.7
2020-Aug-13 17:35 193 26.7
2020-Aug-13 17:27 193 26.7
2020-Aug-13 17:23 193 26.7
2020-Aug-13 17:18 193 0 gusting 5 27.2
2020-Aug-13 17:14 189 0 gusting 5 27.2
2020-Aug-13 17:10 189 0 gusting 5 27.2
2020-Aug-13 17:03 175 27.2
2020-Aug-13 16:58 172 27.2
2020-Aug-13 16:54 171 0 gusting 4 27.2
2020-Aug-13 16:49 162 0 gusting 5 27.8
2020-Aug-13 16:43 155 1 gusting 6 27.8
2020-Aug-13 16:39 152 2 gusting 6 27.8
2020-Aug-13 16:33 161 4 gusting 6 27.8
2020-Aug-13 16:29 145 5 gusting 9 28.3
2020-Aug-13 16:24 150 5 gusting 11 28.3
2020-Aug-13 16:18 151 5 gusting 10 28.9
2020-Aug-13 16:13 147 4 gusting 8 29.4
2020-Aug-13 16:09 155 2 gusting 6 29.4
2020-Aug-13 16:03 138 1 gusting 6 29.4
2020-Aug-13 15:59 160 1 gusting 6 29.4
2020-Aug-13 15:55 164 1 gusting 6 29.4
2020-Aug-13 15:48 151 1 gusting 5 29.4
2020-Aug-13 15:44 181 1 gusting 5 29.4
2020-Aug-13 15:39 182 1 gusting 6 29.4
2020-Aug-13 15:35 152 1 gusting 6 29.4
2020-Aug-13 15:28 155 1 gusting 6 29.4
2020-Aug-13 15:23 162 1 gusting 6 29.4
2020-Aug-13 15:19 188 1 gusting 6 29.4
2020-Aug-13 15:13 152 2 gusting 6 29.4
2020-Aug-13 15:09 162 2 gusting 6 29.4
2020-Aug-13 15:03 164 3 gusting 6 30.0
2020-Aug-13 14:59 168 2 gusting 6 30.0
2020-Aug-13 14:53 165 2 gusting 6 30.0
2020-Aug-13 14:48 158 2 gusting 6 30.0
2020-Aug-13 14:44 141 2 gusting 6 30.0
2020-Aug-13 14:38 150 3 gusting 6 30.0
2020-Aug-13 14:33 158 2 gusting 6 30.0
2020-Aug-13 14:30 162 2 gusting 6 30.0
2020-Aug-13 14:23 143 2 gusting 6 30.0
2020-Aug-13 14:19 158 2 gusting 6 30.0
2020-Aug-13 14:13 169 2 gusting 6 30.0
2020-Aug-13 14:09 164 3 gusting 6 30.0
2020-Aug-13 14:04 152 3 gusting 10 30.0
2020-Aug-13 13:59 148 4 gusting 10 30.0
2020-Aug-13 13:54 141 4 gusting 8 30.0
2020-Aug-13 13:48 157 4 gusting 8 30.0
2020-Aug-13 13:44 151 4 gusting 7 30.0
2020-Aug-13 13:39 165 4 gusting 8 30.0
2020-Aug-13 13:33 162 4 gusting 8 30.0
2020-Aug-13 13:28 143 4 gusting 8 30.0
2020-Aug-13 13:23 181 3 gusting 8 30.6
2020-Aug-13 13:20 160 3 gusting 8 30.0
2020-Aug-13 13:13 164 3 gusting 8 30.0
2020-Aug-13 13:09 151 3 gusting 8 30.0
2020-Aug-13 13:03 144 3 gusting 6 30.0
2020-Aug-13 12:59 140 4 gusting 8 29.4
2020-Aug-13 12:53 161 5 gusting 10 29.4
2020-Aug-13 12:49 150 5 gusting 10 29.4
2020-Aug-13 12:45 145 5 gusting 8 29.4
2020-Aug-13 12:39 148 4 gusting 9 30.0
2020-Aug-13 12:34 133 2 gusting 9 30.0
2020-Aug-13 12:28 169 1 gusting 6 30.0
2020-Aug-13 12:24 137 1 gusting 6 30.0
2020-Aug-13 12:19 096 1 gusting 6 30.0
2020-Aug-13 12:13 113 0 gusting 6 30.0
2020-Aug-13 12:09 178 1 gusting 6 30.0
2020-Aug-13 12:00 103 4 gusting 9 29.4
2020-Aug-13 11:58 099 4 gusting 9 29.4
2020-Aug-13 11:54 136 3 gusting 8 30.0
2020-Aug-13 11:47 157 1 gusting 6 30.6
2020-Aug-13 11:43 147 1 gusting 6 31.1
2020-Aug-13 11:39 152 2 gusting 5 30.6
2020-Aug-13 11:34 121 1 gusting 5 30.6
2020-Aug-13 11:28 161 1 gusting 5 30.6
2020-Aug-13 11:24 134 1 gusting 5 30.6
2020-Aug-13 11:18 124 0 gusting 5 31.1
2020-Aug-13 11:14 133 0 gusting 5 31.1
2020-Aug-13 11:10 141 0 gusting 5 31.1
2020-Aug-13 11:03 069 0 gusting 4 30.6
2020-Aug-13 10:58 069 0 gusting 4 30.6
2020-Aug-13 10:54 069 0 gusting 3 30.0
2020-Aug-13 10:48 069 0 gusting 3 30.0
2020-Aug-13 10:43 069 1 gusting 3 30.0
2020-Aug-13 10:39 069 1 gusting 4 30.0
2020-Aug-13 10:34 068 1 gusting 4 30.0
2020-Aug-13 10:27 044 31.1
2020-Aug-13 10:23 038 31.1
2020-Aug-13 10:18 037 31.1
2020-Aug-13 10:13 037 30.6
2020-Aug-13 10:09 037 0 gusting 5 30.0
2020-Aug-13 10:04 007 1 gusting 5 30.0
2020-Aug-13 10:00 004 1 gusting 5 30.0
2020-Aug-13 09:53 30.0
2020-Aug-13 09:49 30.0
2020-Aug-13 09:43 30.0
2020-Aug-13 09:39 29.4
2020-Aug-13 09:34 020 3 gusting 6 29.4
2020-Aug-13 09:28 037 4 gusting 6 29.4
2020-Aug-13 09:24 013 3 gusting 9 29.4
2020-Aug-13 09:18 035 3 gusting 6 28.9
2020-Aug-13 09:14 014 4 gusting 9 28.9
2020-Aug-13 09:08 024 4 gusting 9 28.9
2020-Aug-13 09:04 006 4 gusting 8 28.9
2020-Aug-13 09:00 013 5 gusting 9 28.9
2020-Aug-13 08:53 28.9
2020-Aug-13 08:48 034 4 gusting 7 28.9
2020-Aug-13 08:44 28.9
2020-Aug-13 08:40 28.9
2020-Aug-13 08:34 028 3 gusting 6 28.3
2020-Aug-13 08:29 356 4 gusting 8 28.3
2020-Aug-13 08:24 025 5 gusting 10 28.3
2020-Aug-13 08:18 021 4 gusting 10 28.3
2020-Aug-13 08:14 357 3 gusting 7 28.3
2020-Aug-13 08:08 28.3
2020-Aug-13 08:04 347 4 gusting 8 28.3
2020-Aug-13 08:00 008 5 gusting 8 27.8
2020-Aug-13 07:53 031 5 gusting 9 28.3
2020-Aug-13 07:47 28.3
2020-Aug-13 07:43 048 5 gusting 10 28.3
2020-Aug-13 07:39 284 5 gusting 10 28.3
2020-Aug-13 07:33 28.3
2020-Aug-13 07:29 354 3 gusting 6 28.3
2020-Aug-13 07:24 336 2 gusting 6 27.8
2020-Aug-13 07:19 354 3 gusting 8 27.8
2020-Aug-13 07:14 344 4 gusting 8 27.8
2020-Aug-13 07:08 018 4 gusting 9 27.8
2020-Aug-13 07:04 353 3 gusting 9 27.8
2020-Aug-13 07:00 328 2 gusting 6 27.8
2020-Aug-13 06:53 344 2 gusting 6 27.2
2020-Aug-13 06:48 359 3 gusting 6 27.2
2020-Aug-13 06:44 27.2
2020-Aug-13 06:39 350 4 gusting 6 26.7
2020-Aug-13 06:33 312 4 gusting 9 26.7
2020-Aug-13 06:29 319 4 gusting 9 26.7
2020-Aug-13 06:24 323 3 gusting 9 26.7
2020-Aug-13 06:18 344 2 gusting 6 26.7
2020-Aug-13 06:13 337 2 gusting 6 26.7
2020-Aug-13 06:08 346 2 gusting 8 26.1
2020-Aug-13 06:04 322 2 gusting 8 26.1
2020-Aug-13 05:58 349 3 gusting 9 26.1
2020-Aug-13 05:54 25.6
2020-Aug-13 05:48 309 3 gusting 8 25.6
2020-Aug-13 05:44 333 2 gusting 6 25.6
2020-Aug-13 05:39 339 3 gusting 6 25.6
2020-Aug-13 05:33 344 2 gusting 6 25.0
2020-Aug-13 05:27 333 1 gusting 5 25.0
2020-Aug-13 05:25 325 1 gusting 6 25.0
2020-Aug-13 05:20 25.0
2020-Aug-13 05:13 329 1 gusting 5 24.4
2020-Aug-13 05:09 336 2 gusting 6 24.4
2020-Aug-13 05:03 306 3 gusting 8 24.4
2020-Aug-13 04:59 316 3 gusting 8 24.4
2020-Aug-13 04:53 339 2 gusting 6 24.4
2020-Aug-13 04:49 332 1 gusting 5 24.4
2020-Aug-13 04:43 339 1 gusting 5 23.9
2020-Aug-13 04:38 339 1 gusting 5 23.9
2020-Aug-13 04:33 333 1 gusting 6 23.9
2020-Aug-13 04:29 329 1 gusting 6 23.9
2020-Aug-13 04:25 339 1 gusting 6 23.9
2020-Aug-13 04:18 23.9
2020-Aug-13 04:14 343 2 gusting 6 23.9
2020-Aug-13 04:09 342 2 gusting 6 23.9
2020-Aug-13 04:03 347 2 gusting 6 23.9
2020-Aug-13 03:59 333 2 gusting 6 23.9
2020-Aug-13 03:53 347 3 gusting 6 23.9
2020-Aug-13 03:49 356 3 gusting 6 23.9
2020-Aug-13 03:43 349 2 gusting 6 23.9
2020-Aug-13 03:39 329 2 gusting 6 23.9
2020-Aug-13 03:32 336 3 gusting 6 23.9
2020-Aug-13 03:28 346 2 gusting 6 23.9
2020-Aug-13 03:24 322 2 gusting 6 23.9
2020-Aug-13 03:18 359 2 gusting 6 23.9
2020-Aug-13 03:14 336 2 gusting 5 23.9
2020-Aug-13 03:08 329 1 gusting 5 23.9
2020-Aug-13 03:03 332 1 gusting 4 23.9
2020-Aug-13 02:59 335 1 gusting 4 23.9
2020-Aug-13 02:53 333 0 gusting 4 23.9
2020-Aug-13 02:47 333 0 gusting 4 23.9
2020-Aug-13 02:43 333 0 gusting 4 23.9
2020-Aug-13 02:36 333 1 gusting 5 23.9
2020-Aug-13 02:31 330 1 gusting 5 24.4
2020-Aug-13 02:29 328 0 gusting 5 24.4
2020-Aug-13 02:24 325 0 gusting 3 24.4
2020-Aug-13 02:16 323 24.4
2020-Aug-13 02:14 312 0 gusting 2 24.4
2020-Aug-13 02:10 299 24.4
2020-Aug-13 02:05 329 24.4
2020-Aug-13 01:58 343 0 gusting 3 24.4
2020-Aug-13 01:53 343 0 gusting 3 24.4
2020-Aug-13 01:48 344 0 gusting 4 25.0
2020-Aug-13 01:44 350 1 gusting 5 25.0
2020-Aug-13 01:38 344 2 gusting 6 25.0
2020-Aug-13 01:34 323 2 gusting 6 25.0
2020-Aug-13 01:28 349 2 gusting 6 25.0
2020-Aug-13 01:24 336 3 gusting 6 25.0
2020-Aug-13 01:20 352 3 gusting 8 25.0
2020-Aug-13 01:14 352 3 gusting 8 25.0
2020-Aug-13 01:09 25.0
2020-Aug-13 01:03 352 2 gusting 6 25.0
2020-Aug-13 00:59 313 3 gusting 6 25.0
2020-Aug-13 00:51 350 2 gusting 6 25.0
2020-Aug-13 00:49 342 2 gusting 6 25.0
2020-Aug-13 00:45 344 2 gusting 6 25.0
2020-Aug-13 00:38 344 2 gusting 6 25.0
2020-Aug-13 00:35 343 2 gusting 6 25.0
2020-Aug-13 00:29 337 2 gusting 6 25.0
2020-Aug-13 00:25 309 2 gusting 5 25.6
2020-Aug-13 00:19 322 2 gusting 6 25.6
2020-Aug-13 00:11 342 2 gusting 6 25.6
2020-Aug-13 00:09 339 2 gusting 5 25.6
2020-Aug-12 23:58 332 2 gusting 5 25.6
2020-Aug-12 23:54 335 2 gusting 5 26.1
2020-Aug-12 23:48 346 2 gusting 6 26.1
2020-Aug-12 23:44 328 3 gusting 6 26.1
2020-Aug-12 23:39 340 3 gusting 6 26.1
2020-Aug-12 23:33 359 2 gusting 6 26.7
2020-Aug-12 23:27 339 2 gusting 5 26.7
2020-Aug-12 23:24 332 2 gusting 5 26.7
2020-Aug-12 23:18 320 2 gusting 5 26.7
2020-Aug-12 23:11 326 1 gusting 5 26.7
2020-Aug-12 23:09 349 1 gusting 5 26.7
2020-Aug-12 23:03 319 1 gusting 5 26.7
2020-Aug-12 22:58 329 0 gusting 5 26.7
2020-Aug-12 22:54 315 26.7
2020-Aug-12 22:47 315 0 gusting 6 26.7
2020-Aug-12 22:41 309 0 gusting 6 26.1
2020-Aug-12 22:39 294 0 gusting 3 26.1
2020-Aug-12 22:34 294 0 gusting 4 26.1
2020-Aug-12 22:28 295 0 gusting 4 26.1
2020-Aug-12 22:23 281 0 gusting 3 26.1
2020-Aug-12 22:19 278 0 gusting 2 26.1
2020-Aug-12 22:15 278 0 gusting 2 26.1
2020-Aug-12 22:08 278 26.7
2020-Aug-12 22:04 278 26.7
2020-Aug-12 21:59 278 26.1
2020-Aug-12 21:53 278 0 gusting 4 26.1
2020-Aug-12 21:48 278 0 gusting 4 26.1
2020-Aug-12 21:43 277 0 gusting 3 26.1
2020-Aug-12 21:38 275 0 gusting 2 26.1
2020-Aug-12 21:34 275 0 gusting 2 26.1
2020-Aug-12 21:28 271 25.6
2020-Aug-12 21:22 271 0 gusting 3 25.6
2020-Aug-12 21:20 271 0 gusting 3 25.6
2020-Aug-12 21:13 239 0 gusting 2 25.6
2020-Aug-12 21:08 227 0 gusting 4 25.6
2020-Aug-12 21:00 179 0 gusting 2 25.6
2020-Aug-12 20:58 179 0 gusting 2 25.6
2020-Aug-12 20:54 179 0 gusting 2 25.6
2020-Aug-12 20:49 171 25.6
2020-Aug-12 20:43 171 25.6
2020-Aug-12 20:37 171 25.6
2020-Aug-12 20:33 171 25.6
2020-Aug-12 20:29 171 25.6
2020-Aug-12 20:24 169 25.6
2020-Aug-12 20:17 167 25.6
2020-Aug-12 20:12 165 25.6
2020-Aug-12 20:09 165 25.6
2020-Aug-12 20:02 164 25.6
2020-Aug-12 19:59 164 25.6
2020-Aug-12 19:52 164 25.6
2020-Aug-12 19:47 164 26.1
2020-Aug-12 19:42 164 26.1
2020-Aug-12 19:40 164 26.1
2020-Aug-12 19:34 164 26.1
2020-Aug-12 19:26 164 26.1
2020-Aug-12 19:24 164 26.7
2020-Aug-12 19:19 164 26.7
2020-Aug-12 19:14 164 26.7
2020-Aug-12 19:10 164 26.1
2020-Aug-12 19:03 124 0 gusting 4 26.1
2020-Aug-12 18:59 161 0 gusting 5 25.6
2020-Aug-12 18:54 179 1 gusting 6 25.6
2020-Aug-12 18:48 121 1 gusting 6 25.6
2020-Aug-12 18:44 088 1 gusting 10 26.1
2020-Aug-12 18:39 154 1 gusting 10 26.7
2020-Aug-12 18:34 102 0 gusting 6 26.7
2020-Aug-12 18:27 162 26.7
2020-Aug-12 18:23 162 27.2
2020-Aug-12 18:17 161 27.2
2020-Aug-12 18:13 161 27.2
2020-Aug-12 18:08 161 27.2
2020-Aug-12 18:04 161 27.2
2020-Aug-12 17:56 161 1 gusting 6 27.2
2020-Aug-12 17:54 154 1 gusting 6 27.8
2020-Aug-12 17:50 174 27.8
2020-Aug-12 17:40 172 27.8
2020-Aug-12 17:38 172 27.8
2020-Aug-12 17:34 172 27.8
2020-Aug-12 17:29 172 27.8
2020-Aug-12 17:24 174 27.8
2020-Aug-12 17:17 175 27.8
2020-Aug-12 17:15 179 27.8
2020-Aug-12 17:08 181 0 gusting 4 28.3
2020-Aug-12 17:03 181 0 gusting 4 28.3
2020-Aug-12 16:59 152 0 gusting 3 28.9
2020-Aug-12 16:54 161 0 gusting 6 28.9
2020-Aug-12 16:49 168 0 gusting 5 28.9
2020-Aug-12 16:44 151 0 gusting 5 29.4
2020-Aug-12 16:39 151 1 gusting 5 29.4
2020-Aug-12 16:33 161 1 gusting 4 29.4
2020-Aug-12 16:29 158 0 gusting 4 30.0
2020-Aug-12 16:24 160 0 gusting 4 30.0
2020-Aug-12 16:18 179 0 gusting 5 30.6
2020-Aug-12 16:13 185 0 gusting 5 30.6
2020-Aug-12 16:09 167 30.6
2020-Aug-12 16:04 168 0 gusting 2 30.6